[[{"header":{"parameterUnit":"m.s-1","parameterCategory":1,"la1":30.2991,"la2":30.254,"lo1":-89.0895,"lo2":-89.0444,"dy":0.0017,"dx":0.0017,"nx":28,"ny":28,"refTime":"2023-11-10T03:00:00:Z","depth":0,"parameterNumber":2,"parameterNumberName":"U-component_of_WINDS"},"data":[0,0,0,0,0,0,0,0,0,0,0,0,0,0,0,0,0,0,0,0,0,0,0,0,0,0,0,0,0,0,0,0,0,0,0,0,0,0,0,0,0,0,0,0,0,0,0,0,0,0,0,0,0,0,0,0,0,0,-3.9862,-3.9863,0,-3.9982,-3.9983,-3.9984,-3.9884,-3.988,-3.9876,-3.9872,-4.0002,-4.0009,-4.0017,0,0,0,0,0,0,0,0,0,0,0,0,0,-3.9554,-3.956,-3.9862,-3.9863,-3.9865,-3.9981,-3.9983,-3.9985,-3.9885,-3.988,-3.9875,-3.987,-4.0,-4.0008,-4.0017,0,0,0,0,0,0,0,0,0,0,0,0,0,-3.9682,-3.9562,-3.9862,-3.9829,-3.9827,-3.9981,-3.9983,-3.9985,-3.9886,-3.988,-3.9873,-3.9868,-3.9997,-4.0008,-4.0019,-4.0213,0,0,-4.0052,-4.0057,0,0,0,0,0,0,0,0,-3.9675,-3.9694,-3.9832,-3.9831,-3.983,-3.9911,-3.9922,-4.0062,-3.9888,-3.9864,-3.9872,-3.9864,-3.9978,-3.999,-4.0026,-4.0219,-4.0225,-4.0053,-4.006,-4.0065,-4.0068,0,0,0,0,0,0,0,-3.9666,-3.9688,-3.9909,-3.9834,-3.9833,-3.9811,-3.9822,-3.9948,-3.9955,-3.9866,-3.9858,-3.9874,-3.9976,-4.0016,-4.0029,-4.0227,-4.0053,-4.0063,-4.007,-4.0074,-4.0588,-4.0594,0,0,0,0,0,0,-3.966,-3.9681,-3.9906,-3.9913,-3.9735,-3.9821,-3.9834,-3.9892,-3.9953,-3.9956,-3.9879,-3.9869,-4.0,-4.0016,-4.0033,-4.0267,-4.0065,-4.0075,-4.0082,-4.0581,-4.0589,-4.0597,0,0,0,0,0,0,-3.9653,-3.9681,-3.9901,-3.9795,-3.9821,-3.9833,-3.9899,-3.9897,-3.9937,-3.9963,-3.9965,-3.9918,-3.9996,-4.0017,-4.0169,-4.027,-4.008,-4.009,-4.0573,-4.0583,-4.0593,-4.0735,0,0,0,0,0,0,-3.9645,-3.9679,-3.9751,-3.9797,-3.9827,-4.0033,-3.9905,-3.9904,-3.9956,-3.9943,-4.0001,-4.0004,-3.9992,-4.0153,-4.018,-4.0282,-4.0099,-4.0564,-4.0577,-4.059,-4.0722,-4.0749,-4.0773,0,0,0,0,0,-3.9634,-3.9788,-3.9756,-3.9783,-3.9918,-4.0039,-4.0057,-4.0038,-3.9964,-4.0039,-4.0055,-4.0002,-4.0254,-4.0169,-4.0199,-4.0306,-4.0557,-4.0574,-4.0589,-4.071,-4.0744,-4.0772,0,0,0,0,0,0,-3.9756,-3.9793,-3.9758,-3.993,-3.9982,-4.0022,-4.0115,-4.0074,-4.0149,-4.0135,-4.011,-4.0124,-4.0285,-4.031,-4.0215,-4.0498,-4.0394,-4.0417,-4.0476,-4.0508,-4.0534,-4.0526,-4.0108,0,0,0,0,0,-3.9802,-3.9895,-3.9924,-4.0073,-4.0101,-4.0104,-4.0156,-4.0137,-4.019,-4.0212,-4.024,-4.0296,-4.0388,-4.0449,-4.0535,-4.0724,-4.0736,-4.0812,-4.0837,-4.0858,-4.0879,-4.0983,-4.1018,-4.0649,-4.0648,-4.0648,0,0,-3.99,-3.9932,-3.9993,-4.0099,-4.0136,-4.0236,-4.0123,-4.0232,-4.0307,-4.023,-4.0375,-4.0397,-4.0458,-4.063,-4.0707,-4.0656,-4.0983,-4.0878,-4.0895,-4.0904,-4.1003,-4.1038,-4.1069,-4.0659,-4.0657,-4.0656,0,0,-4.013,-4.0162,-4.0291,-4.0331,-4.0388,-4.0389,-4.042,-4.0466,-4.0478,-4.0622,-4.0567,-4.0656,-4.0813,-4.086,-4.0904,-4.1151,-4.1107,-4.118,-4.1315,-4.1417,-4.1446,-4.1472,-4.1563,-4.1596,-4.12,-4.12,-4.12,0,-4.0245,-4.039,-4.0363,-4.0477,-4.0527,-4.0458,-4.059,-4.0631,-4.0715,-4.0752,-4.0692,-4.0889,-4.0926,-4.1109,-4.1169,-4.1206,-4.1243,-4.1175,-4.1444,-4.1469,-4.1493,-4.158,-4.1614,-4.1209,-4.1208,-4.1207,-4.1206,0,-4.053,-4.0632,-4.073,-4.081,-4.087,-4.0993,-4.0987,-4.1051,-4.1027,-4.1035,-4.1184,-4.1225,-4.1318,-4.136,-4.1338,-4.154,-4.1507,-4.1446,-4.1342,-4.1537,-4.1618,-4.1651,-4.1221,-4.1218,-4.1216,-4.1214,0,0,-4.0842,-4.0905,-4.0942,-4.0978,-4.1037,-4.1116,-4.1236,-4.1325,-4.1382,-4.1442,-4.1545,-4.168,-4.1624,-4.1674,-4.1657,-4.1746,-4.1942,-4.1674,-4.1675,-4.1725,-4.2172,-4.2219,-4.2258,-4.1911,-4.1918,-4.1922,-4.2167,0,-4.1076,-4.1283,-4.1262,-4.146,-4.1555,-4.1492,-4.1597,-4.1646,-4.1656,-4.174,-4.1752,-4.185,-4.1767,-4.1797,-4.1882,-4.19,-4.2032,-4.1882,-4.201,-4.2015,-4.2,-4.23,-4.235,-4.2579,-4.2199,-4.2204,-4.2208,0,-4.1377,-4.1446,-4.1653,-4.1698,-4.1737,-4.1831,-4.1912,-4.1992,-4.2047,-4.2049,-4.2105,-4.2072,-4.2196,-4.2086,-4.2259,-4.2157,-4.2208,-4.2225,-4.2233,-4.2247,-4.2126,-4.2325,-4.2652,-4.2688,-4.2257,-4.2253,-4.2249,0,-4.1587,-4.1732,-4.1874,-4.1907,-4.1962,-4.2031,-4.2057,-4.2105,-4.2161,-4.2232,-4.2268,-4.2353,-4.2401,-4.2469,-4.2462,-4.2382,-4.2638,-4.2527,-4.2646,-4.2647,-4.2706,-4.2703,-4.3049,-4.2734,-4.2733,-4.2732,-4.2732,0,-4.1853,-4.1983,-4.1969,-4.2058,-4.2202,-4.2178,-4.2322,-4.2341,-4.2384,-4.2477,-4.2427,-4.2516,-4.2499,-4.2588,-4.2583,-4.2728,-4.275,-4.2757,-4.2755,-4.2763,-4.2763,-4.2799,-4.2784,-4.2741,-4.2739,-4.2738,-4.2736,0,-4.2113,-4.2109,-4.2261,-4.23,-4.2313,-4.2418,-4.2453,-4.2537,-4.2543,-4.2661,-4.2688,-4.2698,-4.2801,-4.2799,-4.2916,-4.2913,-4.3092,-4.307,-4.3073,-4.307,-4.319,-4.318,-4.3574,-4.3626,-4.3274,-4.3277,-4.328,0,-4.2284,-4.2382,-4.2431,-4.2489,-4.2519,-4.2612,-4.2668,-4.2648,-4.2708,-4.2778,-4.2856,-4.2953,-4.303,-4.3198,-4.3218,-4.3308,-4.329,-4.3421,-4.3303,-4.3309,-4.3296,-4.3291,-4.3302,-4.3446,-4.345,-4.3453,-4.3455,0,-4.2589,-4.2582,-4.2663,-4.2744,-4.2811,-4.2874,-4.2932,-4.2983,-4.2969,-4.304,-4.3143,-4.3203,-4.3322,-4.3421,-4.3508,-4.3538,-4.3497,-4.3492,-4.3525,-4.3536,-4.3535,-4.3541,-4.314,-4.3484,-4.3481,-4.3479,-4.3477,-4.3476,-4.2812,-4.2897,-4.2945,-4.3037,-4.3078,-4.3133,-4.3215,-4.323,-4.3315,-4.3409,-4.3392,-4.3509,-4.3563,-4.3674,-4.3712,-4.3805,-4.3759,-4.3806,-4.3818,-4.3831,-4.3846,-4.3518,-4.382,-4.382,-4.3819,-4.3818,-4.3817,0,-4.3117,-4.3144,-4.3229,-4.3311,-4.3384,-4.3334,-4.3396,-4.3462,-4.3564,-4.3616,-4.3693,-4.3813,-4.3908,-4.3935,-4.4028,-4.4097,-4.4081,-4.4123,-4.4119,-4.4128,-4.388,-4.3844,-4.4135,-4.4135,-4.4134,-4.4134,-4.4134,-4.4134,-4.3284,-4.3426,-4.3425,-4.3588,-4.3614,-4.3726,-4.3766,-4.3818,-4.386,-4.3995,-4.4073,-4.4089,-4.4132,-4.4227,-4.4314,-4.432,-4.4358,-4.4408,-4.4407,-4.4176,-4.4145,-4.4114,-4.408,-4.4416,-4.4416,-4.4647,-4.4649,-4.4651]},{"header":{"parameterUnit":"m.s-1","parameterCategory":1,"la1":30.2991,"la2":30.254,"lo1":-89.0895,"lo2":-89.0444,"dy":0.0017,"dx":0.0017,"nx":28,"ny":28,"refTime":"2023-11-10T03:00:00:Z","depth":0,"parameterNumber":3,"parameterNumberName":"V-component_of_WINDS"},"data":[0,0,0,0,0,0,0,0,0,0,0,0,0,0,0,0,0,0,0,0,0,0,0,0,0,0,0,0,0,0,0,0,0,0,0,0,0,0,0,0,0,0,0,0,0,0,0,0,0,0,0,0,0,0,0,0,0,0,-3.6275,-3.6274,0,-3.6214,-3.6214,-3.6213,-3.6145,-3.6144,-3.6143,-3.6142,-3.6079,-3.6078,-3.6077,0,0,0,0,0,0,0,0,0,0,0,0,0,-3.6329,-3.6328,-3.6275,-3.6274,-3.6273,-3.6215,-3.6214,-3.6213,-3.6145,-3.6144,-3.6143,-3.6141,-3.6079,-3.6078,-3.6077,0,0,0,0,0,0,0,0,0,0,0,0,0,-3.6291,-3.6328,-3.6275,-3.6232,-3.6228,-3.6215,-3.6214,-3.6213,-3.6145,-3.6144,-3.6142,-3.6141,-3.6079,-3.6078,-3.6077,-3.61,0,0,-3.6074,-3.6073,0,0,0,0,0,0,0,0,-3.6293,-3.6289,-3.6239,-3.6235,-3.623,-3.6186,-3.6209,-3.6175,-3.6146,-3.6177,-3.6142,-3.614,-3.6115,-3.6111,-3.6103,-3.6097,-3.6095,-3.6074,-3.6073,-3.6072,-3.6072,0,0,0,0,0,0,0,-3.6296,-3.6291,-3.6251,-3.6239,-3.6233,-3.6215,-3.6208,-3.6203,-3.6155,-3.6174,-3.6169,-3.6163,-3.6113,-3.6104,-3.6101,-3.6094,-3.6074,-3.6073,-3.6072,-3.6071,-3.6103,-3.6104,0,0,0,0,0,0,-3.6305,-3.6294,-3.6253,-3.6249,-3.6259,-3.6216,-3.6208,-3.6201,-3.6155,-3.6147,-3.6164,-3.616,-3.6107,-3.6103,-3.6099,-3.6122,-3.6072,-3.6071,-3.6071,-3.6101,-3.6103,-3.6105,0,0,0,0,0,0,-3.6306,-3.6302,-3.6255,-3.627,-3.6263,-3.6216,-3.621,-3.6201,-3.6193,-3.6148,-3.6139,-3.6164,-3.6106,-3.61,-3.61,-3.6119,-3.6071,-3.607,-3.6099,-3.6102,-3.6104,-3.617,0,0,0,0,0,0,-3.6308,-3.6303,-3.6312,-3.6271,-3.6262,-3.6259,-3.6211,-3.6201,-3.6191,-3.6185,-3.6146,-3.6138,-3.6104,-3.6102,-3.6099,-3.6117,-3.6069,-3.6098,-3.61,-3.6103,-3.6166,-3.6174,-3.6181,0,0,0,0,0,-3.631,-3.6333,-3.6313,-3.6308,-3.6272,-3.626,-3.6255,-3.6216,-3.6193,-3.6201,-3.6172,-3.6139,-3.6118,-3.6103,-3.6099,-3.6116,-3.6096,-3.61,-3.6103,-3.6162,-3.6172,-3.6181,0,0,0,0,0,0,-3.6377,-3.6327,-3.6304,-3.6314,-3.6292,-3.6248,-3.6258,-3.6228,-3.6212,-3.6207,-3.6159,-3.6151,-3.6156,-3.6136,-3.6121,-3.6136,-3.6102,-3.6105,-3.6149,-3.6158,-3.6165,-3.617,-3.6068,0,0,0,0,0,-3.6393,-3.6388,-3.6343,-3.6356,-3.6346,-3.6304,-3.6297,-3.6269,-3.6244,-3.6235,-3.6205,-3.6182,-3.617,-3.6163,-3.6149,-3.6163,-3.6152,-3.6172,-3.618,-3.6187,-3.6189,-3.6194,-3.6202,-3.6116,-3.6116,-3.6116,0,0,-3.6426,-3.6397,-3.6397,-3.6369,-3.6349,-3.6343,-3.6297,-3.6293,-3.6289,-3.6234,-3.6232,-3.621,-3.618,-3.6187,-3.6188,-3.617,-3.6211,-3.6191,-3.6196,-3.6195,-3.6198,-3.6206,-3.6214,-3.6118,-3.6118,-3.6117,0,0,-3.6482,-3.6461,-3.6469,-3.6449,-3.6419,-3.6391,-3.6393,-3.6354,-3.6337,-3.6335,-3.6293,-3.6286,-3.6267,-3.6247,-3.6235,-3.6283,-3.6252,-3.628,-3.632,-3.6325,-3.6332,-3.6338,-3.6354,-3.6361,-3.6283,-3.6283,-3.6283,0,-3.6527,-3.6518,-3.6476,-3.6475,-3.6464,-3.6414,-3.6421,-3.6404,-3.6371,-3.6364,-3.6345,-3.6318,-3.6295,-3.6296,-3.6308,-3.63,-3.6299,-3.6284,-3.6334,-3.634,-3.6344,-3.6359,-3.6366,-3.6287,-3.6286,-3.6286,-3.6286,0,-3.6573,-3.6567,-3.6577,-3.6547,-3.6536,-3.654,-3.6498,-3.6492,-3.6465,-3.6439,-3.6436,-3.6407,-3.6386,-3.6384,-3.6357,-3.6381,-3.637,-3.6343,-3.6308,-3.6357,-3.637,-3.6376,-3.6292,-3.6291,-3.629,-3.6289,0,0,-3.667,-3.6617,-3.6621,-3.6606,-3.6569,-3.6563,-3.6564,-3.6544,-3.6539,-3.6518,-3.6516,-3.6501,-3.6475,-3.6461,-3.6432,-3.6436,-3.6475,-3.6408,-3.6407,-3.6421,-3.6498,-3.6518,-3.6526,-3.6454,-3.6455,-3.6456,-3.65,0,-3.672,-3.6718,-3.6681,-3.6689,-3.6683,-3.6635,-3.6635,-3.6612,-3.6587,-3.6578,-3.6549,-3.6539,-3.6507,-3.6498,-3.65,-3.647,-3.649,-3.6467,-3.6452,-3.6452,-3.646,-3.6533,-3.6554,-3.6597,-3.6505,-3.6506,-3.6507,0,-3.6777,-3.6759,-3.6768,-3.6729,-3.6725,-3.6726,-3.6704,-3.6696,-3.6668,-3.665,-3.6634,-3.66,-3.6597,-3.6565,-3.6559,-3.6544,-3.6535,-3.652,-3.652,-3.6517,-3.6482,-3.6531,-3.661,-3.6616,-3.6515,-3.6514,-3.6513,0,-3.6846,-3.6824,-3.6826,-3.6815,-3.6771,-3.6772,-3.6754,-3.6725,-3.6715,-3.6695,-3.6688,-3.6668,-3.6658,-3.6643,-3.6605,-3.6585,-3.6603,-3.6567,-3.6586,-3.6587,-3.6592,-3.6592,-3.667,-3.6588,-3.6588,-3.6588,-3.6587,0,-3.6905,-3.6912,-3.6856,-3.6857,-3.6863,-3.682,-3.6826,-3.6803,-3.6777,-3.6772,-3.673,-3.6726,-3.6676,-3.6666,-3.6636,-3.6635,-3.6631,-3.6615,-3.6607,-3.6618,-3.662,-3.6612,-3.6608,-3.6589,-3.6589,-3.6589,-3.6588,0,-3.6983,-3.6946,-3.6945,-3.6903,-3.6893,-3.6899,-3.6862,-3.6861,-3.6833,-3.6827,-3.6824,-3.678,-3.6766,-3.6727,-3.6703,-3.6682,-3.669,-3.6675,-3.6699,-3.6694,-3.6715,-3.6713,-3.679,-3.6797,-3.6711,-3.6712,-3.6713,0,-3.7023,-3.7027,-3.6985,-3.6979,-3.6963,-3.6953,-3.6943,-3.69,-3.6891,-3.6859,-3.6861,-3.6844,-3.6828,-3.6808,-3.6773,-3.6754,-3.6738,-3.6766,-3.6735,-3.6746,-3.6737,-3.6737,-3.6737,-3.6773,-3.6774,-3.6775,-3.6776,0,-3.7097,-3.7078,-3.7065,-3.7046,-3.7035,-3.7017,-3.6997,-3.6994,-3.6946,-3.6938,-3.6923,-3.6911,-3.6886,-3.6869,-3.6844,-3.6824,-3.6792,-3.6786,-3.6789,-3.6801,-3.6815,-3.6807,-3.6717,-3.6785,-3.6784,-3.6783,-3.6783,-3.6782,-3.7156,-3.7157,-3.7128,-3.7114,-3.7095,-3.7077,-3.7074,-3.7046,-3.7033,-3.701,-3.6985,-3.6973,-3.6944,-3.6908,-3.689,-3.6879,-3.6862,-3.6867,-3.6868,-3.687,-3.6875,-3.6817,-3.6874,-3.6874,-3.6874,-3.6874,-3.6873,0,-3.7227,-3.7206,-3.7194,-3.7168,-3.7157,-3.7128,-3.7104,-3.7097,-3.7087,-3.7063,-3.7048,-3.7031,-3.7014,-3.6978,-3.6958,-3.6956,-3.694,-3.6952,-3.6951,-3.6947,-3.6892,-3.689,-3.6964,-3.6964,-3.6964,-3.6964,-3.6964,-3.6964,-3.7263,-3.7263,-3.7241,-3.723,-3.7209,-3.7197,-3.7186,-3.7168,-3.7149,-3.7132,-3.7118,-3.7095,-3.7066,-3.7043,-3.7025,-3.7015,-3.7009,-3.7025,-3.701,-3.6959,-3.6951,-3.6942,-3.6941,-3.7025,-3.7025,-3.7066,-3.7066,-3.7067]}]]